www.pogodaiklimat.ru

Погода и климат >> Архив погоды >> Македония >> Гевгелия


ПОГОДА в Гевгелии

  • Прогноз погоды в Гевгелии
  • Монитор погоды в Гевгелии

АРХИВ ПОГОДЫ в Гевгелии

Время (UTC), дата Ветер
(напр.,м/с)
 
Видим.   Явления Облачность Т
(С)
Тd
(С)
f
(%)
Тe
(С)
Тes
(С)
Комфортность P
(гПа)
Po
(гПа)
Тmin
(С)
Tmax
(С)
R
(мм)
R24
(мм)
S
(см)
09 13.08 штиль 0 20 км ясно +34.2 +14.5 31 +36 +56 опасность
солнечного
удара
1011.2 1004.5
12 13.08 В 2 20 км ясно +37.9 +9.2 18 +36 +52 опасность
солнечного
удара
1008.8 1002.2
15 13.08 штиль 0 20 км ясно +40.2 +6.8 13 +38 +43 очень
жарко
1007.0 1000.5
18 13.08 В 2 20 км ясно +34.0 +9.7 23 +33 +33 жарко 1008.0 1001.3 +41.0
21 13.08 штиль 0 20 км ясно +26.3 +11.5 40 +28 +28 жарко 1009.8 1002.9
00 14.08 штиль 0 20 км ясно +21.9 +11.1 50 +24 +24 комфорт 1010.0 1003.0
03 14.08 штиль 0 20 км ясно +19.2 +12.7 66 +20 +20 1009.7 1002.7
06 14.08 штиль 0 20 км ясно +23.0 +15.3 62 +27 +33 душно 1009.8 1002.9 +18.5
09 14.08 В 2 20 км ясно +32.1 +20.5 50 +39 +54 опасность
солнечного
удара
1007.4 1001.4
12 14.08 В 2 20 км 1/0
[Ci fib]
+35.2 +20.2 42 +42 +57 опасность
перегрева
1006.1 999.4
15 14.08 Ю 3 20 км ясно +36.0 +18.0 35 +40 +43 очень
душно
1004.1 997.4
18 14.08 штиль 0 20 км 1/1 1000 м
[Cu med, cong]
+29.1 +21.6 64 +37 +37 очень
душно
1006.3 999.5
21 14.08 штиль 0 20 км гроза, ливневой дождь туман 8/8 600 м
[St]
+26.3 +15.7 52 +29 +29 жарко 1008.3 1001.4
00 15.08 С 3 20 км {дождь} туман 6/6 600 м
[St]
+21.6 +20.0 91 +27 +27 душно 1009.2 1002.2 0.6
03 15.08 С 4 20 км 4/4 1230 м
[Sc]
+21.8 +18.5 82 +27 +27 душно 1009.6 1002.6
06 15.08 С 5 20 км ясно +23.2 +18.1 73 +29 +31 душно 1010.0 1003.0 +20.8
09 15.08 С 6
{36}
20 км 4/0
[Ac trans]
+27.4 +13.2 42 +29 +34 жарко 1010.8 1003.8
12 15.08 С 6 20 км 3/0
[Ac trans]
+31.4 +11.2 29 +32 +36 жарко 1009.8 1003.1
15 15.08 СЗ 4 20 км 9/0
[Ac trans]
+28.4 +11.7 36 +29 +31 жарко 1008.9 1002.2
18 15.08 СЗ 3 20 км 1/0
[Ci fib]
+27.0 +9.7 34 +27 +27 жарко 1010.0 1003.3 +32.0
21 15.08 С 4 20 км ясно +25.0 +7.6 33 +25 +25 комфорт 1012.0 1005.1
00 16.08 С 3 20 км ясно +22.0 +7.9 40 +23 +23 комфорт 1012.0 1005.1
03 16.08 С 3 20 км ясно +20.0 +9.7 51 +22 +22 комфорт 1012.0 1005.1
06 16.08 С 3 20 км 5/0
[Ac trans]
+23.0 +10.2 44 +25 +27 комфорт 1013.9 1006.9 +19.8
09 16.08 С 4 20 км 8/0
[Ac trans]
+27.0 +9.4 33 +27 +33 жарко 1015.0 1006.2
12 16.08 штиль 0 50 км ?/? +31.3 +8.8 25 +30 +30 жарко 1011.1 1004.3
15 16.08 С 3 20 км 1/1 1230 м
[Cu hum]
+32.2 +8.3 23 +31 +34 жарко 1010.1 1003.4
18 16.08 З 4 20 км ясно +27.3 +6.6 27 +27 +27 жарко 1011.8 1005.0 +32.5
21 16.08 С 2 20 км ясно +24.1 +5.8 31 +24 +24 комфорт 1012.8 1005.9
00 17.08 С 3 20 км 3/3 1000 м
[Sc]
+22.5 +6.0 34 +23 +23 комфорт 1013.5 1006.5
03 17.08 С 5 20 км 1/1 1230 м
[Sc]
+21.2 +6.2 38 +22 +22 комфорт 1013.5 1006.5
06 17.08 С 2 20 км ясно +24.0 +8.3 37 +25 +29 комфорт 1014.5 1007.7 +20.6
09 17.08 С 3 20 км 1/1 1230 м
[Cu hum]
+29.6 +7.7 25 +29 +40 жарко 1015.0 1008.2
15 17.08 З 5 20 км 3/3 1230 м
[Cu hum]
+32.8 +8.6 22 +31 +33 жарко 1012.1 1005.4
18 17.08 штиль 0 20 км 1/1 1000 м
[Sc]
+27.6 +6.6 26 +27 +27 жарко 1012.2 1005.4 +33.5
21 17.08 штиль 0 20 км ясно +23.4 +13.5 54 +27 +27 душно 1014.7 1007.8
00 18.08 штиль 0 20 км ясно +18.6 +11.5 63 +19 +19 1015.6 1008.5
03 18.08 штиль 0 20 км ясно +16.0 +11.1 73 +16 +16 1016.4 1009.3
06 18.08 штиль 0 20 км ясно +21.0 +13.6 63 +23 +29 комфорт 1016.7 1009.7 +15.0
09 18.08 В 2 20 км ясно +30.1 +9.8 28 +30 +45 жарко 1016.3 1009.5
12 18.08 штиль 0 20 км ясно +33.4 +6.0 18 +31 +51 опасность
солнечного
удара
1014.5 1007.8
15 18.08 штиль 0 20 км ясно +34.3 +4.5 16 +32 +37 жарко 1013.4 1006.7
18 18.08 Ю 2 20 км ясно +28.5 +11.1 34 +29 +29 жарко 1014.1 1007.3 +35.2
21 18.08 штиль 0 20 км ясно +22.6 +16.3 68 +27 +27 душно 1016.3 1009.4
00 19.08 штиль 0 20 км ясно +19.0 +14.1 73 +20 +20 1016.8 1009.7
03 19.08 штиль 0 20 км ясно +17.2 +14.8 86 +17 +17 1016.9 1009.8
06 19.08 штиль 0 20 км ясно +22.2 +17.2 73 +27 +32 душно 1017.5 1010.5 +16.4
09 19.08 штиль 0 20 км ясно +30.6 +12.3 33 +31 +51 опасность
солнечного
удара
1017.1 1010.3
12 19.08 штиль 0 20 км 1/1 1000 м
[Cu hum]
+33.9 +10.2 23 +33 +51 опасность
солнечного
удара
1015.7 1009.0
15 19.08 Ю 3 20 км 1/1 1230 м
[Cu hum]
+34.8 +7.4 18 +33 +36 жарко 1014.6 1007.9
18 19.08 В 2 20 км ясно +28.3 +7.2 26 +28 +28 жарко 1015.6 1008.7 +36.0
21 19.08 штиль 0 20 км ясно +24.8 +18.3 67 +29 +29 душно 1017.1 1010.2
00 20.08 штиль 0 20 км ясно +20.3 +15.8 75 +23 +23 комфорт 1017.7 1010.7
03 20.08 штиль 0 20 км ясно +19.0 +16.4 85 +20 +20 1017.7 1010.7

 

Местоположение метеостанции Гевгелия (Македония): широта 41.15 долгота 22.50 высота над уровнем моря 59 м.

В архиве по умолчанию представлена погода в Гевгелии за последнюю неделю. Архивные данные за месяц целиком и за предыдущие месяцы, начиная с января 2011 года, Вы можете получить, выбрав интересующий диапазон дат из раскрывающегося списка и нажав кнопку "Ввод!".


*Определитесь, кто Вы:
робот инопланетянин человек

Внимание! Время в таблицах - всемирное. Для получения местного времени необходимо прибавить поправку, которая равна 1 ч.

Смотрите также архив погоды в соседних городах и на ближайших метеорологических станциях:

Погода в Струмице (Македония) (34 км)
Погода в Демир-Капия (Македония) (37 км)
Погода в Берово (Македония) (70 км)
Погода в Штипе (Македония) (72 км)
Погода в Сандански (Болгария) (76 км)
Погода в Прилепе (Македония) (80 км)
Погода в Салониках (Греция) (80 км)
Погода в Винице (Македония) (81 км)
Погода в Тополчани (Македония) (87 км)
Погода в Серре (Греция) (90 км)

Пояснения к столбцам:

Ветер - указаны скорость ветра в м/с - средняя за 10 мин, порывы в срок и между сроками (в фигурных скобках) и направление, откуда дует ветер: С - северный, СВ - северо-восточный, В - восточный, ЮВ - юго-восточный, Ю - южный, ЮЗ - юго-западный, З - западный, СЗ - северо-западный.
Видимость - горизонтальная дальность видимости в метрах или километрах. При видимости от 1 до 10 км при отсутствии осадков обычно наблюдается дымка, при ухудшении видимости до 1 км и менее - туман. В сухую погоду видимость может ухудшаться дымом, пылью или мглою.
Явления - указаны атмосферные явления, наблюдавшиеся в срок или в последний час перед сроком; фигурными скобками обозначены явления, наблюдавшиеся между сроками (за 1-3 часа до срока); квадратными скобками обозначены град или гололедные отложения с указанием их диаметра в мм.
Облачность - указаны через наклонную черту общая и нижняя облачность в баллах и высота нижней границы облаков в метрах; квадратными скобками обозначены формы облаков: Ci - перистые, Cs - перисто-слоистые, Cc - перисто-кучевые, Ac - высококучевые, As - высокослоистые, Sc - слоисто-кучевые, Ns - слоисто-дождевые, Cu - кучевые, Cb - кучево-дождевые. Подробнее классификацию облаков см. в Атласе облаков (PDF).
T - Температура воздуха - температура, измеренная на высоте 2 м над землей.
Td - Температура точки росы - температура, при понижении до которой содержащийся в воздухе водяной пар достигнет насыщения.
f - Относительная влажность воздуха - влажноcть воздуха, измеренная на высоте 2 м над землей.
Te - Эффективная температура - температура, которую ощущает одетый по сезону человек в тени. Характеристика душности погоды. При расчете учитывается влияние влажности воздуха и скорости ветра на теплоощущения человека.
Tes - Эффективная температура на солнце - температура, которую ощущает человек, с поправкой на солнечный нагрев. Характеристика знойности погоды. Зависит от высоты солнца над горизонтом, облачности и скорости ветра. Ночью, в пасмурную погоду, а также при ветре 12 м/с и более поправка равна нулю.
P - Атмосферное давление - приведенное к уровню моря атмосферное давление.
Po - Атмосферное давление - измеренное на уровне метеостанции атмосферное давление.
Tmin - Минимальная температура - минимум температуры воздуха на высоте 2 м над землей.
Tmax - Максимальная температура - максимум температуры воздуха на высоте 2 м над землей.
R - Количество осадков - Количество выпавших осадков за период времени, мм. При наведении курсора мыши на число - период времени, за который выпало указанное количество осадков.
R24 - Количество осадков - Количество выпавших осадков за 24 часа, мм.
S - Снежный покров - Высота снежного покрова, см. При наведении курсора мыши на число - состояние снежного покрова и степень покрытия местности в баллах.